{"data":{"norad_id":65889,"epoch":"2026-09-20T04:04:22.333152Z","epoch_age_seconds":134614,"freshness":"FRESH","line1":"1 65889U 25224H   26263.16970293  .00014872  00000+0  45074-3 0  9991","line2":"2 65889  53.1599 187.0413 0001124  87.9724 272.1408 15.34377777 54643","mean_motion":15.34377777,"eccentricity":0.0001124,"inclination_deg":53.1599,"raan_deg":187.0413,"arg_perigee_deg":87.9724,"mean_anomaly_deg":272.1408,"bstar":0.00045074,"rev_number":5464,"period_min":93.84911731552,"perigee_km":462.00037457633,"apogee_km":463.53821031087,"semimajor_km":6840.9062924436,"source":"CELESTRAK","updated_at":"2026-09-21T09:00:35.757677Z"}}